Location: Berua Church
(35.0423°N, 88.5987°W)
Time: 23:24:06
(UTC+00:00)

Cosmos 2263 Rocket - Pass Details

Date: 08 December 2019
Orbit: 824 x 848 km, 71.0° (Epoch: 26 January)

Event Time Altitude Azimuth Distance (km) Brightness Sun altitude
Rises 12:13:43 0° 232° (SW) 3,361 5.0 -7.5°
Reaches altitude 10° 12:16:34 10° 245° (WSW) 2,428 4.2 -7.0°
Maximum altitude 12:21:06 25° 300° (WNW) 1,601 3.1 -6.1°
Drops below altitude 10° 12:25:39 10° 356° (N) 2,430 4.3 -5.3°
Sets 12:28:31 0° 9° (N) 3,365 5.2 -4.8°
